Wind_Speed
56 66 74 76 67 73 70 64 53 50 47 47 46 59 47 48 49 43 41 39 37 34 30 32 32 30 31 31 30 30 30 30 30 28 27 28 27 27 24 24 24 23 24 25
44 54 63 61 60 61 66 73 56 51 52 45 47 52 40 51 50 46 43 40 38 34 34 32 31 31 30 30 31 32 31 33 33 32 32 31 31 28 28 26 25 27 30 28
50 45 50 52 60 59 61 71 67 56 56 49 43 57 47 47 57 50 42 41 36 32 32 33 34 33 32 30 31 33 35 35 36 37 36 34 32 27 28 28 30 31 29 28
50 51 49 38 50 56 68 66 63 62 58 57 45 51 44 50 51 44 39 38 33 28 31 34 35 35 34 29 32 35 35 35 37 37 35 34 32 29 31 32 32 29 29 31
51 49 53 56 50 46 54 53 55 62 60 64 44 44 34 38 50 44 33 29 29 27 30 33 35 35 38 38 34 33 34 35 37 35 29 28 28 31 33 33 30 31 32 34
49 49 51 48 51 56 54 49 54 57 55 61 56 42 37 40 37 35 31 31 30 31 29 29 31 34 40 39 36 34 34 32 34 30 27 26 27 29 28 28 29 30 30 31
45 46 40 38 42 38 45 52 37 54 59 70 56 51 41 40 38 36 31 30 32 34 29 26 25 27 34 34 32 31 30 30 29 29 29 29 28 27 26 27 29 30 31 33
46 50 49 50 48 44 42 45 57 55 65 71 61 50 49 40 35 37 35 34 34 31 29 27 25 26 31 32 31 29 28 28 29 30 29 28 28 28 28 29 31 32 33 34
46 47 53 53 51 51 49 45 44 53 60 68 66 52 52 45 47 47 46 43 40 35 33 30 30 30 31 32 30 29 29 29 30 28 29 29 30 30 30 33 34 34 34 36
46 50 47 49 48 48 49 57 55 52 58 62 71 59 63 52 40 41 47 45 46 42 38 36 36 37 37 37 34 33 33 34 33 32 31 31 30 31 33 34 34 35 38 40
51 48 53 54 53 50 54 54 61 56 58 60 68 60 48 60 52 48 44 45 45 47 46 40 41 43 41 39 38 37 36 36 34 33 33 32 32 33 33 34 36 39 41 41
52 52 42 46 43 40 43 45 45 51 52 60 63 66 52 54 61 49 49 45 40 41 46 43 43 44 47 41 39 40 40 38 37 38 37 35 34 34 35 34 36 39 41 40
54 58 57 59 48 50 46 41 50 51 51 53 55 66 59 51 44 42 38 38 43 47 45 44 45 45 46 49 45 44 43 42 42 42 40 38 38 36 36 35 36 38 39 41
50 58 56 56 56 52 48 46 45 43 52 46 47 53 61 55 39 31 29 32 38 46 45 46 47 47 45 45 46 48 46 45 45 46 44 42 41 41 41 41 42 43 46 47
39 49 57 54 49 57 61 50 46 46 43 53 41 45 54 63 50 43 32 32 34 41 43 45 48 50 49 49 49 49 49 50 51 49 47 47 47 46 47 49 50 52 54 52
45 46 51 57 54 48 59 54 46 42 40 44 47 46 43 57 48 51 42 37 36 36 37 41 46 48 48 49 49 50 52 53 52 51 51 51 50 48 52 55 58 60 58 51
44 43 49 51 49 50 53 48 46 48 46 40 35 27 37 53 58 57 55 43 42 44 44 41 44 49 48 49 50 50 52 53 54 53 53 53 55 55 57 60 63 61 55 52
45 45 47 52 51 53 49 43 40 47 46 43 38 27 34 44 50 52 63 62 55 49 50 47 51 49 54 52 52 55 57 56 56 56 57 58 63 64 65 63 60 58 56 54
47 47 51 53 52 60 52 53 41 43 43 39 42 34 35 42 47 53 61 65 61 56 53 55 54 58 60 57 57 59 61 61 60 61 67 67 68 66 60 56 56 54 53 53
45 50 57 56 56 52 55 54 54 53 50 31 37 36 34 39 51 53 46 50 54 56 59 61 59 57 60 61 62 64 66 68 68 69 73 68 60 54 50 50 51 53 54 54
46 45 50 56 60 56 44 42 49 55 43 47 37 36 42 46 44 44 38 45 53 58 64 67 66 66 66 66 68 69 72 75 74 74 67 59 55 52 52 54 55 55 52 51
44 44 41 47 55 61 56 54 53 48 50 50 49 44 44 41 35 37 45 47 53 61 65 68 71 71 73 74 74 75 76 73 70 65 62 59 56 57 58 61 55 51 51 51
43 41 42 42 48 53 53 48 51 44 44 49 53 55 56 62 55 42 37 48 52 56 62 70 74 76 77 74 75 73 68 65 64 58 56 55 57 59 54 52 51 49 48 47
41 41 44 47 44 48 51 52 51 55 52 50 54 55 54 52 51 51 45 42 48 53 57 59 61 64 64 62 61 59 58 55 54 55 55 55 55 53 51 50 50 48 48 50
43 43 46 47 49 45 52 57 53 51 56 47 42 49 54 57 56 54 56 45 42 46 51 53 54 55 54 54 52 51 52 54 55 56 55 53 54 52 49 48 49 50 51 51
42 44 45 47 45 47 52 54 52 54 54 50 50 45 43 43 46 52 53 54 49 42 45 45 42 42 46 50 50 49 51 52 51 50 49 50 50 51 50 51 51 51 51 51
Wind_Direction
236 236 234 240 241 247 245 241 231 230 242 244 237 233 227 228 232 227 225 228 229 231 234 234 233 239 242 246 246 244 240 244 247 250 252 256 261 261 266 267 270 273 273 272
232 241 235 236 234 240 246 246 236 246 244 243 238 237 227 232 234 228 227 229 229 231 236 240 240 239 239 239 241 243 242 241 245 247 248 250 251 256 262 269 271 270 269 279
244 244 239 232 235 237 244 248 245 251 254 244 244 236 234 227 235 235 231 231 232 232 234 238 240 238 236 239 241 240 241 241 241 243 246 250 253 257 260 261 261 265 276 281
239 238 231 222 226 233 241 245 248 251 257 252 246 239 232 225 231 232 229 230 230 229 230 234 239 241 236 235 236 235 241 244 246 246 247 252 253 252 254 258 263 270 274 278
235 240 237 231 236 231 238 237 241 245 250 254 242 250 214 220 224 230 227 216 214 223 229 234 239 242 238 230 234 235 237 244 249 254 255 255 260 258 256 263 265 269 274 276
233 236 235 238 238 236 236 234 234 237 243 251 243 251 221 218 223 219 221 215 218 226 228 236 245 244 243 238 238 243 248 252 255 256 254 257 257 259 262 265 267 269 272 275
231 231 233 234 237 231 233 233 233 236 235 243 242 247 237 218 231 230 218 215 221 226 226 233 243 248 240 239 240 242 237 239 240 234 238 245 247 249 256 262 268 271 273 276
224 222 224 227 224 224 234 242 235 233 240 246 242 240 240 219 227 223 219 221 230 233 233 233 232 236 231 231 230 232 230 229 226 231 240 244 247 252 255 260 265 271 277 279
225 229 228 233 239 239 235 239 235 233 236 245 244 237 240 239 230 219 230 230 229 239 247 245 235 225 225 228 227 229 230 234 237 235 237 242 247 253 257 258 264 271 274 277
223 231 230 231 238 241 246 241 244 242 235 239 241 237 234 248 226 224 228 235 235 239 244 243 233 227 227 225 226 230 234 236 235 237 243 247 252 254 257 261 269 272 276 280
227 236 236 237 245 249 244 239 236 242 244 239 241 237 232 242 242 233 230 236 244 244 244 243 237 230 227 228 232 234 235 234 238 241 246 252 254 258 263 270 272 273 275 279
222 232 238 235 240 247 242 243 236 241 250 247 243 234 237 246 245 248 247 255 250 244 237 236 237 234 228 233 237 235 235 237 238 242 248 255 259 261 264 268 268 271 274 278
228 233 241 242 247 244 242 246 246 245 245 244 243 234 241 251 256 260 257 257 254 236 238 236 235 235 234 235 237 235 236 236 241 246 251 255 258 259 264 267 269 272 276 280
231 234 239 245 247 245 246 251 253 254 252 252 248 239 235 236 245 245 223 219 221 229 237 235 233 234 234 237 235 235 237 239 244 248 251 253 255 259 264 270 274 277 280 282
227 238 238 239 249 248 245 252 247 253 256 250 246 240 233 239 243 237 207 210 220 223 233 232 231 231 232 235 236 235 238 241 244 248 251 253 255 260 268 273 279 281 283 281
226 231 235 241 243 249 245 243 246 244 244 251 248 239 234 234 234 230 223 207 213 226 231 233 235 233 231 232 234 235 238 241 244 246 249 254 259 264 270 274 279 281 279 277
235 233 234 236 242 246 245 241 251 245 247 249 245 245 244 241 232 232 238 234 243 243 243 240 235 232 230 230 231 233 237 240 243 246 251 258 263 267 270 274 278 277 276 277
237 231 239 237 237 241 239 242 244 244 246 247 242 239 238 232 237 235 236 238 245 249 245 240 235 237 235 232 233 236 238 242 247 251 256 259 263 266 269 271 274 275 279 279
240 239 238 241 241 240 235 241 250 252 245 242 243 244 246 241 239 236 236 240 245 244 242 236 237 235 236 238 240 243 246 248 250 254 259 261 263 264 269 273 275 279 278 276
242 240 240 243 249 245 246 242 246 252 246 239 253 244 249 235 234 235 230 230 234 236 233 235 237 235 236 238 243 244 246 248 249 251 255 259 262 268 271 271 270 269 271 273
241 247 248 249 253 241 239 241 243 246 245 245 246 237 249 245 248 237 227 226 229 232 231 231 232 231 235 240 242 242 243 244 248 252 257 261 267 266 265 263 264 266 270 271
242 246 250 249 249 247 244 251 253 250 240 245 247 246 247 238 258 252 241 233 230 228 230 234 236 234 235 238 241 244 246 248 254 258 263 266 263 263 261 261 267 267 267 268
244 247 249 253 254 252 254 250 245 246 243 238 236 243 245 249 258 259 251 240 237 238 237 234 235 237 239 242 244 247 253 258 258 259 259 261 262 264 266 265 266 267 269 269
245 245 248 250 253 252 251 251 250 242 242 247 247 249 248 250 253 258 255 245 242 240 241 245 247 249 251 254 258 259 259 261 262 262 264 263 265 266 266 266 267 267 268 272
246 244 251 254 252 252 246 247 253 251 243 242 245 246 251 249 252 254 253 246 241 239 239 241 245 249 251 253 255 258 259 261 262 263 262 262 263 261 262 264 267 271 273 274
246 244 244 250 251 253 245 244 250 248 242 244 240 244 240 245 247 250 247 245 241 239 234 234 240 245 248 251 253 255 256 255 256 256 256 258 260 263 265 267 270 272 274 274
Height
5716 5718 5725 5744 5752 5755 5762 5767 5774 5782 5780 5783 5786 5787 5799 5800 5801 5809 5813 5818 5823 5828 5833 5834 5839 5841 5844 5847 5850 5854 5856 5855 5855 5857 5858 5859 5861 5859 5861 5861 5860 5860 5859 5858
5708 5710 5728 5728 5733 5741 5747 5755 5767 5770 5769 5773 5778 5779 5791 5793 5793 5799 5806 5810 5815 5822 5824 5829 5833 5834 5838 5840 5842 5844 5847 5849 5849 5851 5851 5852 5853 5854 5855 5856 5856 5854 5852 5853
5700 5710 5711 5717 5723 5730 5737 5748 5759 5761 5761 5764 5767 5768 5780 5787 5785 5792 5799 5803 5809 5816 5819 5822 5825 5828 5830 5835 5837 5837 5836 5838 5841 5843 5844 5846 5847 5850 5850 5849 5848 5847 5848 5848
5691 5697 5703 5707 5714 5724 5730 5742 5746 5752 5752 5755 5760 5757 5770 5777 5778 5786 5794 5797 5804 5809 5813 5815 5817 5820 5824 5828 5828 5829 5831 5831 5833 5835 5838 5840 5842 5843 5842 5842 5841 5843 5842 5841
5689 5691 5696 5701 5713 5718 5724 5729 5735 5739 5742 5744 5752 5753 5767 5769 5772 5780 5789 5794 5799 5801 5803 5807 5810 5813 5815 5817 5821 5823 5824 5826 5827 5828 5831 5833 5834 5836 5836 5836 5836 5836 5836 5834
5674 5681 5685 5696 5702 5710 5713 5718 5722 5726 5731 5731 5748 5750 5756 5762 5768 5775 5782 5785 5790 5793 5798 5801 5803 5804 5807 5809 5814 5816 5819 5821 5821 5822 5824 5826 5827 5828 5829 5829 5829 5828 5828 5827
5666 5671 5678 5687 5695 5698 5702 5710 5715 5715 5719 5727 5740 5741 5749 5757 5763 5770 5774 5778 5782 5786 5791 5795 5797 5798 5801 5804 5806 5808 5811 5814 5814 5815 5817 5819 5820 5821 5822 5822 5822 5821 5822 5820
5658 5663 5671 5677 5685 5694 5699 5702 5704 5706 5710 5719 5725 5735 5742 5754 5758 5764 5767 5771 5776 5781 5785 5788 5790 5792 5795 5798 5800 5802 5805 5808 5809 5810 5812 5813 5814 5815 5816 5815 5814 5814 5813 5813
5651 5658 5665 5672 5678 5685 5688 5689 5697 5697 5702 5704 5713 5732 5730 5745 5751 5758 5762 5765 5769 5773 5777 5781 5784 5786 5789 5792 5795 5798 5800 5802 5804 5806 5806 5808 5809 5809 5809 5808 5807 5806 5805 5804
5645 5649 5656 5661 5665 5670 5675 5684 5687 5687 5688 5692 5705 5718 5726 5732 5744 5747 5752 5757 5760 5763 5767 5773 5776 5780 5783 5785 5787 5789 5793 5796 5798 5799 5800 5801 5802 5802 5800 5799 5800 5799 5798 5796
5637 5642 5646 5649 5655 5662 5666 5667 5674 5679 5681 5686 5699 5712 5722 5722 5730 5736 5742 5749 5754 5755 5759 5764 5767 5770 5775 5778 5780 5782 5784 5788 5790 5791 5792 5793 5794 5793 5793 5793 5792 5791 5788 5787
5630 5633 5636 5644 5649 5652 5654 5659 5663 5668 5677 5682 5686 5703 5709 5714 5717 5723 5730 5737 5742 5745 5748 5752 5757 5761 5766 5769 5772 5774 5776 5779 5780 5781 5782 5784 5784 5784 5785 5785 5783 5782 5780 5778
5619 5622 5627 5633 5637 5643 5645 5651 5656 5661 5663 5667 5676 5692 5701 5706 5708 5713 5718 5723 5729 5734 5738 5741 5746 5750 5754 5758 5762 5765 5766 5768 5770 5771 5773 5774 5774 5774 5774 5774 5773 5771 5770 5768
5608 5613 5618 5625 5631 5636 5638 5644 5648 5652 5651 5662 5664 5683 5692 5698 5704 5705 5705 5712 5718 5723 5726 5731 5736 5739 5743 5746 5750 5754 5756 5758 5760 5761 5762 5762 5762 5763 5763 5762 5761 5761 5759 5758
5599 5602 5608 5615 5620 5622 5628 5634 5637 5638 5645 5643 5662 5663 5676 5686 5696 5697 5697 5702 5708 5712 5717 5721 5724 5727 5731 5734 5738 5742 5744 5746 5747 5749 5750 5750 5749 5750 5751 5750 5749 5748 5747 5746
5590 5594 5598 5603 5611 5613 5616 5622 5627 5631 5637 5638 5645 5650 5663 5668 5679 5685 5688 5692 5696 5702 5706 5710 5715 5718 5721 5724 5727 5729 5731 5733 5735 5737 5738 5739 5739 5738 5738 5738 5737 5736 5735 5733
5582 5587 5591 5593 5601 5604 5603 5618 5620 5626 5631 5637 5634 5650 5652 5655 5661 5669 5677 5683 5686 5690 5695 5699 5703 5706 5709 5711 5714 5717 5718 5720 5721 5723 5724 5725 5726 5726 5726 5725 5724 5723 5721 5719
5572 5579 5581 5585 5588 5587 5602 5608 5612 5614 5622 5625 5631 5639 5638 5642 5646 5649 5657 5664 5672 5677 5683 5688 5691 5695 5697 5699 5701 5703 5704 5707 5709 5710 5711 5711 5712 5712 5711 5710 5710 5710 5708 5706
5564 5567 5571 5574 5577 5580 5589 5604 5610 5607 5614 5619 5621 5628 5630 5631 5630 5636 5643 5648 5656 5664 5671 5673 5675 5681 5685 5687 5689 5690 5692 5695 5696 5697 5697 5696 5696 5696 5695 5695 5695 5694 5693 5692
5555 5558 5561 5565 5564 5567 5589 5594 5594 5592 5596 5618 5616 5619 5621 5621 5616 5630 5635 5637 5642 5646 5652 5657 5662 5666 5670 5673 5676 5679 5680 5682 5682 5682 5681 5682 5683 5683 5681 5681 5681 5680 5679 5677
5545 5546 5550 5557 5554 5560 5576 5579 5575 5577 5610 5602 5611 5613 5608 5603 5608 5618 5616 5615 5623 5631 5636 5640 5644 5648 5653 5656 5658 5659 5660 5661 5664 5665 5668 5670 5670 5668 5668 5668 5667 5667 5665 5663
5536 5538 5542 5545 5545 5553 5563 5562 5565 5583 5587 5585 5590 5594 5594 5593 5595 5603 5605 5607 5608 5613 5619 5624 5628 5631 5633 5636 5638 5640 5642 5644 5649 5653 5654 5655 5655 5655 5652 5653 5652 5651 5650 5648
5524 5530 5532 5533 5538 5548 5546 5552 5556 5562 5569 5571 5576 5579 5581 5584 5586 5590 5594 5595 5598 5601 5604 5607 5610 5612 5615 5619 5621 5624 5631 5634 5636 5636 5636 5637 5637 5638 5638 5637 5636 5636 5635 5635
5515 5516 5519 5522 5531 5530 5532 5537 5542 5546 5551 5557 5560 5565 5569 5571 5575 5579 5584 5584 5585 5588 5592 5596 5600 5603 5606 5609 5613 5615 5617 5618 5619 5619 5620 5622 5622 5622 5622 5622 5622 5621 5620 5620
5504 5506 5510 5514 5516 5519 5519 5524 5528 5535 5539 5544 5548 5552 5556 5559 5562 5566 5571 5573 5574 5577 5581 5584 5586 5589 5592 5594 5596 5599 5601 5602 5604 5605 5606 5606 5607 5607 5607 5607 5607 5607 5607 5606
5492 5495 5497 5501 5504 5506 5511 5513 5516 5521 5526 5531 5536 5540 5543 5546 5550 5553 5556 5560 5563 5565 5568 5572 5574 5577 5579 5581 5583 5585 5587 5589 5589 5590 5591 5592 5593 5594 5594 5593 5593 5592 5592 5592